Find Eutelsat I F-5

NORAD ID: 19331 Int'l Des: 1988-063 Owner: EUTEL Country: I-EUT operational
HEOCIRCULAR

リアルタイム位置

3D地球を読み込み中...

Eutelsat I F-5について

説明を読み込み中...

次回通過

Passes for default location (London). Set your location on the main map for personalized predictions.

高度履歴

Loading altitude history...

軌道要素

1 19331U 88063B 26121.50991751 -.00000162 00000-0 00000+0 0 9990
2 19331 14.5777 346.3031 0008989 156.6711 25.1940 0.98165807113887
Epoch: May 1, 2026 • Age: 17 hours

現在のステータス

高度 36383.2 km
速度 3.05 km/s
衛星直下点 13.86°N, 119.14°E
打ち上げ日 Jul 21, 1988
運用期間 37.7 years
タイプ other

技術仕様

分類 Payload
質量 662.00 kg
乾燥質量 540.00 kg
総質量 1175.00 kg
長さ 2.40 m
直径 2.20 m
スパン 13.80 m
形状 Box + 2 Pan
製造者 BAES
バスタイプ ECS
フェーズステータス Renamed
所有者/国 EUTEL/I-EUT

Most Searched